Location: Astronomy Club of Akron Observatory
(40.9700°N, 81.5606°W)
Time: 06:51:05
(UTC-04:00)

ATLAS 2AS CENTAUR R/B - Visible Passes

Search period start: 25 July 2017 00:00
Search period end: 04 August 2017 00:00
Orbit: 905 x 1307 km, 63.7° (Epoch: 13 June)

Date Brightness Start Highest point End Pass type
(mag) Time Alt. Az. Time Alt. Az. Time Alt. Az.
25 Jul 4.3 02:43:39 22° SE 02:46:02 25° ESE 02:52:14 10° NE visible
25 Jul 3.1 04:31:06 24° SW 04:36:17 75° NW 04:44:28 10° NNE visible
26 Jul 4.8 02:00:24 14° ESE 02:01:46 15° ESE 02:05:50 10° ENE visible
26 Jul 3.1 03:47:50 36° SSW 03:51:26 76° ESE 03:59:35 10° NE visible
26 Jul 4.2 05:36:21 10° W 05:43:16 32° NW 05:50:26 10° NNE visible
27 Jul 3.4 03:04:32 40° SSE 03:06:46 51° ESE 03:14:32 10° NE visible
27 Jul 3.8 04:51:59 16° WSW 04:57:59 44° NW 05:05:43 10° NNE visible
28 Jul 3.9 02:21:11 32° SE 02:22:16 33° ESE 02:29:13 10° NE visible
28 Jul 3.3 04:08:38 29° WSW 04:12:52 61° NW 04:20:58 10° NNE visible
29 Jul 4.5 01:37:49 21° ESE 01:37:55 21° ESE 01:43:25 10° ENE visible
29 Jul 3.0 03:25:15 47° SW 03:27:55 87° NW 03:36:08 10° NE visible
29 Jul 4.4 05:13:34 10° W 05:20:08 27° NW 05:26:52 10° NNE visible
30 Jul 5.0 00:54:24 11° E 00:54:24 11° E 00:56:05 10° E visible
30 Jul 3.0 02:41:50 57° SSE 02:43:09 65° ESE 02:51:11 10° NE visible
30 Jul 4.0 04:29:15 17° W 04:34:44 36° NW 04:42:09 10° NNE visible
31 Jul 3.5 01:58:22 43° ESE 01:58:33 43° ESE 02:06:02 10° NE visible
31 Jul 3.6 03:45:47 30° WSW 03:49:30 50° NW 03:57:25 10° NNE visible
31 Jul 5.0 05:37:20 10° WNW 05:42:41 19° NNW 05:48:05 10° NNE visible
01 Aug 4.2 01:14:52 27° E 01:14:52 27° E 01:20:34 10° NE visible
01 Aug 3.1 03:02:18 51° WSW 03:04:27 71° NW 03:12:38 10° NNE visible
01 Aug 4.7 04:50:53 10° W 04:57:02 23° NNW 05:03:18 10° NNE visible
02 Aug 4.7 00:31:20 16° E 00:31:20 16° E 00:34:24 10° ENE visible
02 Aug 2.8 02:18:45 73° S 02:19:35 82° ESE 02:27:46 10° NE visible
02 Aug 4.3 04:06:10 15° W 04:11:32 30° NW 04:18:34 10° NNE visible
03 Aug 3.2 01:35:11 55° ESE 01:35:11 55° ESE 01:42:45 10° NE visible
03 Aug 3.9 03:22:36 27° W 03:26:13 41° NW 03:33:52 10° NNE visible
03 Aug 5.1 05:14:51 10° NW 05:19:43 17° NNW 05:24:38 10° NNE visible
